User: anonymous   Login
Location: Carter Cabin
(41.0271°N, 122.9339°W)
Time: 01:58:22
(UTC+00:00)
Language:

YAOGAN 6 - Orbit

View from above orbital plane
View from above orbital plane
View from above satellite
View from above satellite

Ground track
Ground track

The orbit data is extracted from the following two-line orbital elements,

1 34839U 09021A   24175.44498838  .00016728  00000-0  31510-3 0  9993
2 34839  97.1708 142.8915 0018669 149.0618 211.1737 15.48391862844409
Epoch (UTC): 23 June 2024 10:40:46
Eccentricity: 0.0018669
inclination: 97.1708°
perigee height: 409 km
apogee height: 434 km
right ascension of ascending node: 142.8915°
argument of perigee: 149.0618°
revolutions per day: 15.48391862
mean anomaly at epoch: 211.1737°
orbit number at epoch: 84440

The dashed part of the orbit path shows where the satellite is in the earth's shadow,  

DLR